Location: Peebles
(55.6412°N, 3.1714°W)
Time: 12:01:32
(UTC+01:00)

FENGYUN 1C DEB - Pass Details

Date: 10 July 2022
Orbit: 580 x 1160 km, 99.3° (Epoch: 16 August)

Event Time Altitude Azimuth Distance (km) Brightness Sun altitude
Exits shadow 23:40:30 - 131° (SE) 2,882 ? -9.5°
Reaches altitude 10° 23:40:53 10° 130° (SE) 2,750 ? -9.5°
Maximum altitude 23:46:52 48° 59° (ENE) 1,380 ? -9.8°
Drops below altitude 10° 23:53:30 10° 348° (NNW) 3,045 ? -10.2°
Sets 23:56:17 0° 343° (NNW) 4,037 ? -10.3°
